Location: Fort Wayne
(41.1310°N, 85.1290°W)
Time: 17:58:47
(UTC-04:00)

OPAL - Visible Passes

Search period start: 04 August 2015 00:00
Search period end: 14 August 2015 00:00
Orbit: 743 x 796 km, 100.2° (Epoch: 03 August)

Date Brightness Start Highest point End Pass type
(mag) Time Alt. Az. Time Alt. Az. Time Alt. Az.
04 Aug 9.2 21:31:52 10° ENE 21:34:03 13° E 21:36:31 10° ESE visible
04 Aug 7.6 23:08:32 10° N 23:13:32 71° WNW 23:16:53 21° SSW visible
05 Aug 7.6 22:33:15 10° NNE 22:38:09 52° ESE 22:40:50 26° SSE visible
06 Aug 9.8 00:13:06 10° NNW 00:16:43 20° WNW 00:20:14 10° WSW visible
06 Aug 8.6 21:58:34 10° NE 22:02:33 24° E 22:04:47 18° SE visible
06 Aug 8.6 23:36:55 10° N 23:41:36 40° WNW 23:45:03 17° SW visible
07 Aug 9.4 21:26:09 10° E 21:26:41 10° E 21:27:36 10° E visible
07 Aug 7.4 23:01:17 10° NNE 23:06:21 87° WNW 23:09:00 29° SSW visible
08 Aug 10.3 00:42:44 10° NW 00:44:36 12° WNW 00:46:12 10° WNW visible
08 Aug 7.9 22:26:08 10° NNE 22:30:54 42° E 22:32:57 29° SSE visible
09 Aug 9.5 00:05:35 10° N 00:09:36 24° WNW 00:13:13 11° WSW visible
09 Aug 8.8 21:51:42 10° NE 21:55:14 20° E 21:56:53 17° ESE visible
09 Aug 8.3 23:29:35 10° N 23:34:26 49° WNW 23:37:09 25° SW visible
10 Aug 7.4 22:54:05 10° NNE 22:59:08 77° ESE 23:01:06 38° S visible
11 Aug 10.2 00:34:45 10° NNW 00:37:31 14° WNW 00:40:03 10° W visible
11 Aug 8.1 22:19:04 10° NE 22:23:39 34° E 22:25:02 30° SE visible
11 Aug 9.2 23:58:07 10° N 00:02:28 29° WNW 00:05:19 17° WSW visible
12 Aug 9.0 21:44:58 10° ENE 21:47:55 16° E 21:48:58 15° ESE visible
12 Aug 7.9 23:22:16 10° N 23:27:16 61° WNW 23:29:15 35° SW visible
13 Aug 7.5 22:46:54 10° NNE 22:51:56 62° ESE 22:53:11 47° SSE visible
